Voltar ao catálogo

COSMOS 2251 DEB

AtivoLEO
NORAD 34346·DEBRIS·🇷🇺 Russia

Lançado Jun 16, 1993 de Plesetsk Cosmodrome

Loading…

Próximas Passagens (próximas 24 horas)

TLE

AtualizadoSource: Space-Track

Época: Sep 14, 2026, 06:27 UTC

1 34346U 93036PU  26257.26896106  .00000820  00000-0  47160-3 0  9992
2 34346  73.9939 193.7287 0208358 310.6573 201.3788 14.00579702892665

Acompanhe COSMOS 2251 DEB em tempo real com AllMySat

Download on the App Store